Location: Maiden
(35.5760°N, 81.2120°W)
Time: 21:02:58
(UTC-04:00)

Cosmos 2285 Rocket - Pass Details

Date: 14 June 2018
Orbit: 971 x 998 km, 74.0° (Epoch: 18 June)

Event Time Altitude Azimuth Distance (km) Brightness Sun altitude
Exits shadow 23:09:48 40° 180° (S) 1,403 4.4 -23.0°
Maximum altitude 23:12:12 75° 105° (ESE) 1,016 3.9 -23.2°
Drops below altitude 10° 23:18:30 10° 21° (NNE) 2,729 6.8 -23.9°
Sets 23:21:02 0° 20° (NNE) 3,677 7.6 -24.2°
